Location: *
(52.2090°N, 4.1550°W)
Time: 02:31:54
(UTC+00:00)

SL-8 R/B - Pass Details

Date: 19 July 2019
Orbit: 656 x 668 km, 48.4° (Epoch: 20 August)

Event Time Altitude Azimuth Distance (km) Brightness Sun altitude
Rises 21:05:05 0° 272° (W) 2,982 7.9 -5.3°
Reaches altitude 10° 21:07:30 10° 267° (W) 2,069 6.9 -5.5°
Maximum altitude 21:12:03 46° 195° (SSW) 882 4.2 -6.0°
Drops below altitude 10° 21:16:36 10° 122° (ESE) 2,065 5.6 -6.5°
Enters shadow 21:17:15 - 120° (ESE) 2,307 5.9 -6.6°
